EW5887 Weather Reports


Display with metric or nautical units.
time (UTC)temp
F
wind
direction
speed
MPH
gust
MPH
rain 1hr
in
rain 24hr
in
rain mn
in
humidity
%
barometer
mb
20180718010053 44 28 3.0 5.0 0.00 0.00 0.00 90 1010.3
20180718004552 44 34 5.0 9.0 0.00 0.00 0.00 90 1010.2
20180718003053 46 23 6.0 12.0 0.00 0.00 0.00 90 1010.2
20180718001547 46 33 5.0 13.0 0.00 0.00 0.00 88 1010.3
20180718000045 47 360 8.0 12.0 0.00 0.00 0.00 88 1010.1
20180717234543 48 319 10.0 13.0 0.00 0.00 0.00 85 1010.2
20180717233046 48 338 10.0 12.0 0.00 0.00 0.00 87 1010.3
20180717231541 48 342 8.0 11.0 0.00 0.00 0.00 88 1010.4
20180717230044 48 22 9.0 10.0 0.00 0.00 0.00 89 1010.5
20180717224539 49 360 8.0 11.0 0.00 0.00 0.00 88 1010.4
20180717223038 49 11 9.0 12.0 0.00 0.00 0.00 86 1010.3
20180717221536 50 26 9.0 11.0 0.00 0.00 0.00 85 1010.1
20180717220036 51 16 8.0 11.0 0.00 0.00 0.00 85 1010.1
20180717214538 52 10 6.0 10.0 0.00 0.00 0.00 83 1010.1
20180717213037 52 20 6.0 9.0 0.00 0.00 0.00 81 1010.2
20180717211534 52 355 6.0 11.0 0.00 0.00 0.00 82 1010.1
20180717210034 52 9 8.0 10.0 0.00 0.00 0.00 82 1010.1
20180717204531 51 338 8.0 11.0 0.00 0.00 0.00 83 1010.1
20180717203030 51 315 10.0 12.0 0.00 0.00 0.00 82 1010.0
20180717201528 52 318 11.0 16.0 0.00 0.00 0.00 79 1009.8
20180717200028 52 24 6.0 10.0 0.00 0.00 0.00 81 1009.8
20180717194527 53 340 8.0 11.0 0.00 0.00 0.00 78 1009.8
20180717193026 53 290 4.0 9.0 0.00 0.00 0.00 77 1009.7
20180717191529 53 327 6.0 12.0 0.00 0.00 0.00 74 1009.6
20180717190027 54 300 8.0 14.0 0.00 0.00 0.00 71 1009.6
20180717184524 56 283 11.0 17.0 0.00 0.00 0.00 59 1009.4
20180717183026 56 277 12.0 17.0 0.00 0.00 0.00 64 1009.4
20180717181522 56 277 13.0 18.0 0.00 0.00 0.00 61 1009.4
20180717180025 57 272 14.0 19.0 0.00 0.00 0.00 52 1009.3
20180717174521 57 277 15.0 18.0 0.00 0.00 0.00 55 1009.3
20180717173022 56 267 5.0 19.0 0.00 0.00 0.00 52 1009.2
20180717171520 56 279 13.0 20.0 0.00 0.00 0.00 55 1009.0
20180717170020 55 287 14.0 17.0 0.00 0.00 0.00 60 1008.9
20180717164520 57 296 16.0 20.0 0.00 0.00 0.00 54 1009.0
20180717163021 57 288 18.0 21.0 0.00 0.00 0.00 50 1009.0
20180717161518 59 290 0.0 16.0 0.00 0.00 0.00 53 1009.0
20180717160016 60 290 12.0 20.0 0.00 0.00 0.00 43 1009.0
20180717154515 60 290 7.0 18.0 0.00 0.00 0.00 42 1009.0
20180717153015 61 301 0.0 15.0 0.00 0.00 0.00 52 1009.1
20180717151511 59 316 0.0 20.0 0.00 0.00 0.00 56 1009.1
20180717150011 58 304 0.0 17.0 0.00 0.00 0.00 53 1009.1
20180717144508 57 298 8.0 20.0 0.00 0.00 0.00 51 1009.2
20180717143006 57 292 12.0 20.0 0.00 0.00 0.00 53 1009.3
20180717141506 58 288 0.0 18.0 0.00 0.00 0.00 49 1009.3
20180717140000 58 288 8.0 19.0 0.00 0.01 0.00 46 1009.4
20180717134459 57 284 8.0 18.0 0.00 0.01 0.00 50 1009.4
20180717132957 58 281 10.0 15.0 0.00 0.01 0.00 51 1009.6
20180717131453 57 355 0.0 10.0 0.00 0.01 0.00 58 1009.6
20180717125950 55 315 8.0 10.0 0.00 0.01 0.00 59 1009.7
20180717124447 55 276 8.0 14.0 0.00 0.01 0.00 57 1009.7
20180717122947 54 281 11.0 14.0 0.00 0.01 0.00 57 1009.7
20180717121444 53 276 11.0 14.0 0.00 0.01 0.00 61 1009.6
20180717115941 53 281 12.0 15.0 0.00 0.01 0.00 60 1009.7
20180717114438 53 281 14.0 18.0 0.00 0.01 0.00 62 1009.7
20180717112941 53 279 13.0 16.0 0.00 0.01 0.00 62 1009.6
20180717111437 53 294 10.0 17.0 0.00 0.01 0.00 60 1009.7
20180717105935 53 302 10.0 17.0 0.00 0.01 0.00 65 1009.7
20180717104436 52 295 13.0 15.0 0.00 0.01 0.00 64 1009.5
20180717103036 52 307 14.0 17.0 0.00 0.01 0.00 63 1009.5
20180717101434 52 294 13.0 18.0 0.00 0.01 0.00 63 1009.4
20180717095930 52 296 10.0 12.0 0.00 0.01 0.00 64 1009.4
20180717094427 52 291 9.0 11.0 0.00 0.01 0.00 62 1009.4
20180717092928 52 277 0.0 0.0 0.00 0.01 0.00 61 1009.6
20180717091429 51 245 0.0 3.0 0.00 0.01 0.00 59 1009.4
20180717085925 51 284 7.0 11.0 0.00 0.01 0.00 66 1009.4
20180717084425 52 273 4.0 10.0 0.00 0.01 0.00 59 1009.3
20180717082920 51 275 0.0 0.0 0.00 0.01 0.00 62 1009.5
20180717081419 50 283 0.0 7.0 0.00 0.01 0.00 71 1009.6
20180717075915 49 289 0.0 11.0 0.00 0.01 0.00 75 1009.6
20180717074415 49 290 8.0 10.0 0.00 0.01 0.00 76 1009.5
20180717072913 49 319 8.0 10.0 0.00 0.01 0.00 78 1009.4
20180717071415 48 324 0.0 0.0 0.00 0.01 0.00 75 1009.5
20180717065909 48 291 0.0 7.0 0.00 0.01 0.00 74 1009.5
20180717064410 48 288 8.0 10.0 0.00 0.01 0.00 79 1009.4
20180717062902 47 294 9.0 12.0 0.00 0.01 0.00 82 1009.3
20180717061401 47 305 9.0 11.0 0.00 0.01 0.00 82 1009.2
20180717055900 47 304 10.0 15.0 0.00 0.01 0.00 83 1009.1
20180717054402 46 329 12.0 18.0 0.00 0.01 0.00 81 1008.9
20180717052858 47 307 12.0 16.0 0.00 0.01 0.00 80 1008.9
20180717051358 45 281 1.0 7.0 0.00 0.01 0.00 80 1008.8
20180717045856 45 244 2.0 7.0 0.00 0.01 0.00 80 1008.8
20180717044352 46 273 6.0 12.0 0.00 0.01 0.00 80 1008.7
20180717042850 46 295 10.0 16.0 0.00 0.01 0.00 83 1008.6
20180717041350 46 334 14.0 19.0 0.00 0.01 0.00 82 1008.4
20180717035846 46 317 18.0 23.0 0.00 0.01 0.00 83 1008.2
20180717034345 47 328 19.0 22.0 0.00 0.01 0.00 83 1008.1
20180717032845 46 332 13.0 16.0 0.00 0.01 0.00 86 1008.2
20180717031344 46 295 9.0 11.0 0.00 0.01 0.00 85 1008.2
20180717025841 46 336 12.0 17.0 0.00 0.01 0.00 86 1008.0
20180717024340 46 325 11.0 14.0 0.00 0.01 0.00 89 1007.8
20180717022839 46 319 11.0 13.0 0.00 0.01 0.00 89 1007.9
20180717021338 46 328 11.0 13.0 0.00 0.01 0.00 88 1007.9
20180717015838 46 341 15.0 19.0 0.00 0.01 0.00 87 1007.8
20180717014339 46 306 16.0 19.0 0.00 0.01 0.00 88 1007.7
20180717012836 46 314 12.0 16.0 0.00 0.01 0.00 89 1007.6